"Pseudo-MPEC" for P10IgXI

Created 2018 Jul 20 14:18:03 UT using Find_Orb

Click here for an explanation of pseudo-MPECs

 
 Astrometry: 
     P10IgXI  C2018 07 10M1Astrometryqwp\L+A^=vfy#MjU:$_][5RQBuX^a)51cL]IG]-dF51
     P10IgXI  C2018 07 10Yt=7!-F;e_xFt*RdTAnCRWo6MhZ-bwxc^DXJ)1p#;sug'[$Ilt_MF51
     P10IgXI  C2018 07 10j2;KsWHqta;R1x=[U38N.%/%:4N,b33,yNWM_ZDYA:f,l)AHYv%^F51
     P10IgXI KC2018 07 13`*RN29jyLvxUTK:hJredacted;tc`o0CjX`J/?bI#;w5Tg4Z=f5K807
     P10IgXI KC2018 07 138P9J40KDSpWmt@f\iiQf$_-8@$%UPq+ig/F!sKy'uVtov;,?*]_c807
     P10IgXI KC2018 07 13wlU=q4L!+2DLAj';p'Bk7p;heG-p^m3[9hRd#%ebk0ifTp'$w#p5807
     P10IgXI KC2018 07 19N1Wm2d=p1PRK?*ivcU^T?MAsxxuZHdb3AUE`s;q#GvB,frou1$:8474
     P10IgXI KC2018 07 19yg6U?25APQTLaSf4I77p44T,LO=PCVOdseel**XtKc%Z5f3U6l8-474
     P10IgXI ^C2018 07 19.55616822 41 34.441-34 38 08.93         21.62GVNEOCP568
     P10IgXI ^C2018 07 19.55711322 41 34.379-34 38 10.64         21.71GVNEOCP568
     P10IgXI ^C2018 07 19.55806122 41 34.318-34 38 12.51         21.57GVNEOCP568
     P10IgXI KC2018 07 19Zc425=P?:`n%RS/e'4N,n=M\r'rd?YEyw322QRkJ.-Ys4H!uHRjO474
     P10IgXI KC2018 07 19%UI8TH5A4HLPTrRTBaV4P$6%tT'MEW,TZDb\4)q60Gj(TxJ;nOE*474
     P10IgXI KC2018 07 19e$%t,,s=lMwji3$L*:\,^d`75!+o**J/YDo?=21D/!gBZ9'NEOCP474

Station data:
(474) Mount John Observatory, Lake Tekapo  (S43.987388 E170.464960)  New
   Zealand.  Observers A. C. Gilmore, P. M. Kilmartin. Measurer P. M.
   Kilmartin. 1.0-m f/7.7 reflector + CCD.
(568) Mauna Kea  (N19.826116 W155.472200)  US/Hawaii.
(807) Cerro Tololo Observatory, La Serena  (S30.169136 W70.805900)  Chile.
   1.5-m Ritchey-Chrétien.
(F51) Pan-STARRS 1, Haleakala  (N20.707235 W156.255910)  US/Hawaii.
   Observers N. Primak, A. Schultz, S. Watters, J. Thiel, T. Goggia. Measurer
   PS1 Science Consortium. 1.8-m Ritchey-Chrétien + CCD.

Orbital elements:  P10IgXI
   Perihelion 2018 Apr 13.164440 +/- 0.0531 TT =  3:56:47 (JD 2458221.664440)
Epoch 2018 Jul 19.0 TT = JDT 2458318.5   Earth MOID: 0.1175   Ma: 0.0487
M  47.33470 +/- 0.06                (J2000 ecliptic)          AutoNEOCP
n   0.48881528 +/- 0.000623         Peri.  126.17558 +/- 0.034
a   1.59602441 +/- 0.00136          Node    94.58474 +/- 0.022
e   0.3425590 +/- 0.000528          Incl.   14.10144 +/- 0.020
P   2.02/736.46d           H 21.9   G  0.15   U  7.8  
q 1.04929181 +/- 4.98e-5    Q 2.14275702 +/- 0.00266
From 14 observations 2018 July 10-19; mean residual 0".16
Residuals in arcseconds: 
180710 F51  .02-  .07+    180713 807  .11-  .11+    180719 568  .02-  .02-    
180710 F51  .03-  .13-    180719 474  .08-  .26-    180719 474  .03+  .24+    
180710 F51  .05+  .06+    180719 474  .34-  .04-    180719 474  .50+  .12+    
180713 807  .16-  .04+    180719 568  .02+  .01-    180719 474  .11-  .08-    
180713 807  .27+  .15-    180719 568  .00   .06+    

Ephemerides (geocentric):
Date (UTC) HH   RA              Dec         delta   r     elong  mag " sig PA
---- -- -- --  -------------   -----------  ------ ------ -----  --- ---- ---
2018 07 20 14  22 40 37.724   -35 09 55.03  .42383 1.3740 141.7 21.9  .20 108
2018 07 20 15  22 40 35.330   -35 11 12.28  .42394 1.3742 141.7 21.9  .20 108
2018 07 20 16  22 40 32.929   -35 12 29.46  .42405 1.3744 141.7 21.9  .21 108
2018 07 20 17  22 40 30.521   -35 13 46.58  .42416 1.3747 141.8 21.9  .22 108
2018 07 20 18  22 40 28.106   -35 15 03.64  .42427 1.3749 141.8 21.9  .22 108
2018 07 20 19  22 40 25.684   -35 16 20.64  .42438 1.3751 141.8 21.9  .23 108
2018 07 20 20  22 40 23.255   -35 17 37.58  .42449 1.3753 141.9 21.9  .24 108
2018 07 20 21  22 40 20.818   -35 18 54.45  .42460 1.3755 141.9 21.9  .25 108
2018 07 20 22  22 40 18.375   -35 20 11.27  .42471 1.3757 141.9 21.9  .25 108
2018 07 20 23  22 40 15.925   -35 21 28.02  .42482 1.3759 142.0 21.9  .26 108
2018 07 21 00  22 40 13.467   -35 22 44.70  .42493 1.3761 142.0 21.9  .27 108
2018 07 21 01  22 40 11.003   -35 24 01.33  .42505 1.3763 142.0 21.9  .28 109
2018 07 21 02  22 40 08.532   -35 25 17.89  .42516 1.3765 142.1 21.9  .28 109
2018 07 21 03  22 40 06.053   -35 26 34.40  .42527 1.3767 142.1 21.9  .29 109
2018 07 21 04  22 40 03.568   -35 27 50.83  .42538 1.3769 142.1 21.9  .30 109
2018 07 21 05  22 40 01.076   -35 29 07.21  .42549 1.3771 142.2 21.9  .31 109
2018 07 21 06  22 39 58.576   -35 30 23.52  .42561 1.3773 142.2 21.9  .32 109
2018 07 21 07  22 39 56.070   -35 31 39.77  .42572 1.3775 142.2 21.9  .32 109
2018 07 21 08  22 39 53.557   -35 32 55.95  .42583 1.3777 142.3 21.9  .33 109
2018 07 21 09  22 39 51.036   -35 34 12.07  .42595 1.3780 142.3 21.9  .34 109
2018 07 21 10  22 39 48.509   -35 35 28.13  .42606 1.3782 142.3 21.9  .35 109
2018 07 21 11  22 39 45.975   -35 36 44.12  .42617 1.3784 142.4 21.9  .36 109
2018 07 21 12  22 39 43.434   -35 38 00.05  .42629 1.3786 142.4 21.9  .36 109
2018 07 21 13  22 39 40.886   -35 39 15.92  .42640 1.3788 142.4 21.9  .37 109
2018 07 21 14  22 39 38.331   -35 40 31.71  .42652 1.3790 142.5 21.9  .38 109
2018 07 21 15  22 39 35.770   -35 41 47.45  .42663 1.3792 142.5 21.9  .39 109
2018 07 21 16  22 39 33.201   -35 43 03.12  .42674 1.3794 142.5 21.9  .40 109
2018 07 21 17  22 39 30.625   -35 44 18.73  .42686 1.3796 142.6 21.9  .40 109
2018 07 21 18  22 39 28.043   -35 45 34.27  .42698 1.3798 142.6 21.9  .41 109
2018 07 21 19  22 39 25.454   -35 46 49.74  .42709 1.3800 142.6 21.9  .42 109
2018 07 21 20  22 39 22.857   -35 48 05.15  .42721 1.3802 142.7 21.9  .43 109
2018 07 21 21  22 39 20.254   -35 49 20.49  .42732 1.3804 142.7 21.9  .44 109
2018 07 21 22  22 39 17.645   -35 50 35.77  .42744 1.3806 142.7 21.9  .45 109
2018 07 21 23  22 39 15.028   -35 51 50.98  .42756 1.3808 142.8 21.9  .46 109
2018 07 22 00  22 39 12.404   -35 53 06.13  .42767 1.3811 142.8 21.9  .47 109
2018 07 22 01  22 39 09.774   -35 54 21.21  .42779 1.3813 142.8 21.9  .47 109
2018 07 22 02  22 39 07.137   -35 55 36.22  .42791 1.3815 142.8 21.9  .48 109
2018 07 22 03  22 39 04.493   -35 56 51.17  .42802 1.3817 142.9 21.9  .49 109
2018 07 22 04  22 39 01.842   -35 58 06.05  .42814 1.3819 142.9 21.9  .50 109
2018 07 22 05  22 38 59.184   -35 59 20.87  .42826 1.3821 142.9 21.9  .51 109
2018 07 22 06  22 38 56.520   -36 00 35.61  .42838 1.3823 143.0 21.9  .52 109
2018 07 22 07  22 38 53.849   -36 01 50.29  .42849 1.3825 143.0 21.9  .53 109
2018 07 22 08  22 38 51.171   -36 03 04.90  .42861 1.3827 143.0 21.9  .54 109
2018 07 22 09  22 38 48.486   -36 04 19.45  .42873 1.3829 143.1 21.9  .55 110
2018 07 22 10  22 38 45.795   -36 05 33.93  .42885 1.3831 143.1 21.9  .56 110
2018 07 22 11  22 38 43.096   -36 06 48.34  .42897 1.3833 143.1 21.9  .57 110
2018 07 22 12  22 38 40.392   -36 08 02.68  .42909 1.3835 143.2 21.9  .57 110
2018 07 22 13  22 38 37.680   -36 09 16.95  .42921 1.3837 143.2 21.9  .58 110